Location: Pinon Hills
(34.4429°N, 117.6403°W)
Time: 20:09:14
(UTC-07:00)

Uosat F - Visible Passes

Search period start: 28 March 2015 00:00
Search period end: 07 April 2015 00:00
Orbit: 751 x 761 km, 98.7° (Epoch: 27 March)

Date Brightness Start Highest point End Pass type
(mag) Time Alt. Az. Time Alt. Az. Time Alt. Az.
28 Mar 11.6 05:27:30 10° NNE 05:32:28 62° E 05:37:25 10° S visible
29 Mar 13.3 04:49:02 10° NE 04:53:00 24° E 04:57:03 10° SSE visible
30 Mar 11.0 05:47:40 10° N 05:52:42 82° WNW 05:57:42 10° SSW visible
31 Mar 12.5 05:08:43 10° NNE 05:13:22 38° E 05:18:01 10° SSE visible
01 Apr 13.8 04:31:03 10° ENE 04:33:43 15° E 04:36:39 10° SE visible
01 Apr 11.3 06:08:01 10° N 06:12:52 50° WNW 06:17:41 10° SSW visible
02 Apr 11.6 05:28:40 10° NNE 05:33:39 63° E 05:38:36 10° S visible
03 Apr 13.3 04:50:11 10° NE 04:54:10 24° E 04:58:14 10° SSE visible
04 Apr 11.0 05:48:50 10° N 05:53:52 81° WNW 05:58:52 10° SSW visible
05 Apr 12.5 05:09:52 10° NNE 05:14:31 39° E 05:19:11 10° SSE visible
06 Apr 13.8 04:32:11 10° ENE 04:34:53 15° E 04:37:51 10° SE visible
